time_stamp(utc),avg(mph),gust(mph),direction(deg),12m_air_temp(f),sonic_u(cm/s),sonic_v(cm/s),sonic_w(cm/s),pressure,2m_air_temp(f),pyranometer(W/m^2)
"2019-12-07 00:02:33+00",0.0,0.0,,47.3,-1239,1240,-800,1015.23,46,0
"2019-12-07 00:07:33+00",0.0,0.0,,47.4,-1765,1942,-1248,1015.31,46,0
"2019-12-07 00:12:33+00",0.0,0.0,,47.6,-1834,2002,-1304,1015.23,46.1,0
"2019-12-07 00:17:33+00",0.0,0.0,,47.4,-1979,2272,-1448,1015.34,46.2,0
"2019-12-07 00:22:33+00",0.0,0.0,,47.6,-2249,2665,-1680,1015.3,46.3,0
"2019-12-07 00:27:33+00",0.0,0.0,,47.4,-1258,1267,-817,1015.38,46.3,0
"2019-12-07 00:32:33+00",0.0,0.0,,47.4,-1753,2047,-1244,1015.55,46.3,0
"2019-12-07 00:37:33+00",0.0,0.0,,47.3,-2647,3417,-2020,1015.62,46.1,0
"2019-12-07 00:42:33+00",0.0,0.0,,47.3,-2150,2624,-1551,1015.77,46,0
"2019-12-07 00:47:33+00",0.0,0.0,,47.9,-2170,2612,-1554,1015.71,46.1,0
"2019-12-07 00:52:33+00",0.0,0.0,,48.6,-1942,2211,-1316,1015.72,46.4,0
"2019-12-07 00:57:33+00",0.0,0.0,,48.8,-2027,2347,-1398,1015.71,46.7,0
"2019-12-07 01:02:33+00",0.0,0.0,,48.7,-2047,2365,-1398,1015.82,46.8,0
"2019-12-07 01:07:33+00",0.0,0.0,,48.9,-2261,2696,-1572,1015.94,47,0
"2019-12-07 01:12:33+00",0.0,0.0,,49,-2401,2882,-1678,1016.01,47,0
"2019-12-07 01:17:33+00",0.0,0.0,,48.6,-2202,2664,-1531,1016.01,47,0
"2019-12-07 01:22:33+00",0.0,0.0,,48.7,-1790,2010,-1164,1016.05,47,0
"2019-12-07 01:27:33+00",0.0,0.0,,48.6,-2090,2531,-1448,1016.08,47,0
"2019-12-07 01:32:33+00",0.0,0.0,,48.5,-1602,1750,-987,1016.18,47,0
"2019-12-07 01:37:33+00",0.0,0.0,,48.9,-2391,2885,-1627,1016.26,47,0
"2019-12-07 01:42:33+00",0.0,0.0,,49.2,-1823,2082,-1090,1016.4,47,0
"2019-12-07 01:47:33+00",0.0,0.0,,48.7,-1251,1250,-606,1016.59,47,0
"2019-12-07 01:52:33+00",0.0,0.0,,48.2,-1100,1125,-519,1016.78,46.8,0
"2019-12-07 01:57:33+00",0.0,0.0,,48.1,-1115,1139,-487,1016.77,46.5,0
"2019-12-07 02:02:33+00",0.0,0.0,,48.5,-1139,1279,-534,1016.82,46.7,0
"2019-12-07 02:07:33+00",0.0,0.0,,47.9,-896,897,-366,1016.95,46.6,0
"2019-12-07 02:12:33+00",0.0,0.0,,47.4,-860,862,-368,1017,46.2,0
"2019-12-07 02:17:33+00",0.0,0.0,,47,-801,815,-327,1017.19,45.8,0
"2019-12-07 02:22:33+00",0.0,0.0,,47,-729,737,-282,1017.16,45.5,0
"2019-12-07 02:27:33+00",0.0,0.0,,46.8,-653,648,-250,1017.22,45.2,0
"2019-12-07 02:32:33+00",0.0,0.0,,46.7,-805,936,-376,1017.25,44.9,0
"2019-12-07 02:37:33+00",0.0,0.0,,46.3,-629,715,-273,1017.28,44.6,0
"2019-12-07 02:42:33+00",0.0,0.0,,46.2,-566,666,-250,1017.41,44.3,0
"2019-12-07 02:47:33+00",0.0,0.0,,46.2,-605,722,-273,1017.5,44.1,0
"2019-12-07 02:52:33+00",0.0,0.0,,46.3,-637,771,-280,1017.46,43.9,0
"2019-12-07 02:57:33+00",0.0,0.0,,46.2,-766,1016,-394,1017.52,43.7,0
"2019-12-07 03:02:33+00",0.0,0.0,,46.3,-700,937,-353,1017.62,43.6,0
"2019-12-07 03:07:33+00",0.0,0.0,,46,-709,1038,-387,1017.61,43.4,0
"2019-12-07 03:12:33+00",0.0,0.0,,46.1,-733,1003,-380,1017.69,43.2,0
"2019-12-07 03:17:33+00",0.0,0.0,,45.8,-746,972,-359,1017.81,43.2,0
"2019-12-07 03:22:33+00",0.0,0.0,,45.7,-621,863,-299,1017.85,43.2,0
"2019-12-07 03:27:33+00",0.0,0.0,,45.9,-706,1010,-359,1017.88,43,0
"2019-12-07 03:32:33+00",0.0,0.0,,46,-711,1056,-386,1017.98,42.8,0
"2019-12-07 03:37:33+00",0.0,0.0,,45.9,-725,1071,-412,1017.98,42.6,0
"2019-12-07 03:42:33+00",0.0,0.0,,45.9,-823,1324,-452,1018.08,43,0
"2019-12-07 03:47:33+00",0.0,0.0,,46.1,-1059,1750,-642,1018.15,43.9,0
"2019-12-07 03:52:33+00",0.0,0.0,,45.8,-951,1515,-575,1018.32,44.3,0
"2019-12-07 03:57:33+00",0.0,0.0,,45.8,-1018,1714,-627,1018.34,44.5,0
"2019-12-07 04:02:33+00",0.0,0.0,,45.9,-1075,1780,-669,1018.43,44.6,0
"2019-12-07 04:07:33+00",0.0,0.0,,45.9,-1029,1752,-662,1018.55,44.7,0
"2019-12-07 04:12:33+00",0.0,0.0,,46.1,-1401,2931,-1168,1018.6,44.9,0
"2019-12-07 04:17:33+00",0.0,0.0,,45.7,-1140,2005,-721,1018.66,44.7,0
"2019-12-07 04:22:33+00",0.0,0.0,,45.3,-455,877,-142,1018.79,44.4,0
"2019-12-07 04:27:33+00",0.0,0.0,,44.9,-224,425,80,1018.85,44,0
"2019-12-07 04:32:33+00",0.0,0.0,,44.5,-202,458,85,1018.95,43.5,0
"2019-12-07 04:37:33+00",0.0,0.0,,44.1,46,130,255,1019.12,43.1,0
"2019-12-07 04:42:33+00",0.0,0.0,,44.2,-699,1813,-557,1019.26,42.9,0
"2019-12-07 04:47:33+00",0.0,0.0,,43.7,-954,2293,-842,1019.26,42.7,0
"2019-12-07 04:52:33+00",0.0,0.0,,43.2,-223,910,-171,1019.47,42.2,0
"2019-12-07 04:57:33+00",0.0,0.0,,42.8,-1401,3257,-1382,1019.51,41.8,0
"2019-12-07 05:02:33+00",0.0,0.0,,42.6,-557,1616,-510,1019.49,41.6,0
"2019-12-07 05:07:33+00",0.0,0.0,,42.3,157,268,249,1019.62,41.2,0
"2019-12-07 05:12:33+00",0.0,0.0,,42,585,-663,733,1019.73,40.9,0
"2019-12-07 05:17:33+00",0.0,0.0,,41.9,131,38,361,1019.78,40.7,0
"2019-12-07 05:22:33+00",0.0,0.0,,41.8,807,-1147,974,1019.89,40.6,0
"2019-12-07 05:27:33+00",0.0,0.0,,41.4,508,-654,671,1019.92,40.3,0
"2019-12-07 05:32:33+00",0.0,0.0,,41.1,670,-1019,868,1019.88,40.1,0
"2019-12-07 05:37:33+00",0.0,0.0,,41.1,583,-824,766,1020.05,39.8,0
"2019-12-07 05:42:33+00",0.0,0.0,,40.8,613,-880,810,1020.09,39.6,0
"2019-12-07 05:47:33+00",0.0,0.0,,40.3,10,230,124,1020.27,39.2,0
"2019-12-07 05:52:33+00",0.0,0.0,,40.1,-78,546,-37,1020.39,38.8,0
"2019-12-07 05:57:33+00",0.0,0.0,,40.1,-225,768,-197,1020.45,38.3,0
"2019-12-07 06:02:33+00",0.0,0.0,,39.7,-136,621,-161,1020.58,38,0
"2019-12-07 06:07:33+00",0.0,0.0,,39.6,-632,1575,-582,1020.63,37.5,0
"2019-12-07 06:12:33+00",0.0,0.0,,39.7,-251,939,-234,1020.63,37.4,0
"2019-12-07 06:17:33+00",0.0,0.0,,39.4,98,69,237,1020.67,37.4,0
"2019-12-07 06:22:33+00",0.0,0.0,,39.4,-3,441,104,1020.85,37.6,0
"2019-12-07 06:27:33+00",0.0,0.0,,39.2,86,273,201,1020.92,37.7,0
"2019-12-07 06:32:33+00",0.0,0.0,,38.7,-24,394,74,1020.97,37.5,0
"2019-12-07 06:37:33+00",0.0,0.0,,38.5,180,35,324,1021.03,37.3,0
"2019-12-07 06:42:33+00",0.0,0.0,,38.3,-55,392,85,1021.13,37.1,0
"2019-12-07 06:47:33+00",0.0,0.0,,38.1,-131,512,39,1021.22,36.9,0
"2019-12-07 06:52:33+00",0.0,0.0,,37.9,-84,421,44,1021.17,36.7,0
"2019-12-07 06:57:33+00",0.0,0.0,,37.5,-46,324,83,1021.22,36.4,0
"2019-12-07 07:02:33+00",0.0,0.0,,37.4,-19,330,111,1021.39,36.2,0
"2019-12-07 07:07:33+00",0.0,0.0,,37.2,-6,373,64,1021.44,35.8,0
"2019-12-07 07:12:33+00",0.0,0.0,,37,-48,434,11,1021.52,35.5,0
"2019-12-07 07:17:33+00",0.0,0.0,,36.7,-358,1014,-342,1021.64,35,0
"2019-12-07 07:22:33+00",0.0,0.0,,36.5,-302,878,-257,1021.67,34.6,0
"2019-12-07 07:27:33+00",0.0,0.0,,36.4,-200,652,-105,1021.72,34.4,0
"2019-12-07 07:32:33+00",0.0,0.0,,36.4,-326,823,-184,1021.8,34.3,0
"2019-12-07 07:37:33+00",0.0,0.0,,36.3,-344,851,-185,1021.83,34.4,0
"2019-12-07 07:42:33+00",0.0,0.0,,36.1,-425,1029,-315,1021.86,34.4,0
"2019-12-07 07:47:33+00",0.0,0.0,,36.1,-674,1498,-539,1021.88,34.4,0
"2019-12-07 07:52:33+00",0.0,0.0,,36,-925,2011,-801,1021.93,34.3,0
"2019-12-07 07:57:33+00",0.0,0.0,,35.9,-499,1217,-394,1022.06,34.3,0
"2019-12-07 08:02:33+00",0.0,0.0,,36.1,-1114,2418,-1009,1022.09,34.4,0
"2019-12-07 08:07:33+00",0.0,0.0,,36.1,-571,1420,-464,1022.09,34.4,0
"2019-12-07 08:12:33+00",0.0,0.0,,35.7,-444,1090,-350,1022.18,34.2,0
"2019-12-07 08:17:33+00",0.0,0.0,,35.2,-387,961,-313,1022.14,33.9,0
"2019-12-07 08:22:33+00",0.0,0.0,,34.8,-383,901,-287,1022.32,33.6,0
"2019-12-07 08:27:33+00",0.0,0.0,,34.4,-403,998,-316,1022.46,33.2,0
"2019-12-07 08:32:33+00",0.0,0.0,,34.5,-365,943,-277,1022.53,32.8,0
"2019-12-07 08:37:33+00",0.0,0.0,,34.4,-325,871,-263,1022.56,32.5,0
"2019-12-07 08:42:33+00",0.0,0.0,,34.4,-287,784,-206,1022.56,32.2,0
"2019-12-07 08:47:33+00",0.0,0.0,,34.2,-268,696,-181,1022.61,32,0
"2019-12-07 08:52:33+00",0.0,0.0,,34,-276,690,-153,1022.67,31.9,0
"2019-12-07 08:57:33+00",0.0,0.0,,34,-309,732,-176,1022.66,31.9,0
"2019-12-07 09:02:33+00",0.0,0.0,,33.8,-320,753,-201,1022.77,31.9,0
"2019-12-07 09:07:33+00",0.0,0.0,,33.6,-193,488,-62,1022.83,31.7,0
"2019-12-07 09:12:33+00",0.0,0.0,,33.4,-245,612,-128,1022.95,31.6,0
"2019-12-07 09:17:33+00",0.0,0.0,,33.3,-203,556,-117,1023.05,31.5,0
"2019-12-07 09:22:33+00",0.0,0.0,,33.2,-173,412,-53,1023.14,31.3,0
"2019-12-07 09:27:33+00",0.0,0.0,,33.4,-154,451,-61,1023.26,31.1,0
"2019-12-07 09:32:33+00",0.0,0.0,,33.7,-228,542,-99,1023.27,31,0
"2019-12-07 09:37:33+00",0.0,0.0,,33.7,-197,541,-71,1023.45,31.1,0
"2019-12-07 09:42:33+00",0.0,0.0,,33.4,-197,465,-42,1023.61,31.3,0
"2019-12-07 09:47:33+00",0.0,0.0,,33.3,-165,375,4,1023.67,31.4,0
"2019-12-07 09:52:33+00",0.0,0.0,,33.4,-215,531,-71,1023.77,31.4,0
"2019-12-07 09:57:33+00",0.0,0.0,,33.3,-204,448,-33,1023.75,31.5,0
"2019-12-07 10:02:33+00",0.0,0.0,,33.3,-240,404,-10,1023.81,31.4,0
"2019-12-07 10:07:33+00",0.0,0.0,,33.3,-200,367,3,1023.71,31.3,0
"2019-12-07 10:12:33+00",0.0,0.0,,33.3,-196,290,61,1023.79,31.2,0
"2019-12-07 10:17:33+00",0.0,0.0,,33.3,-192,236,106,1023.8,31.4,0
"2019-12-07 10:22:33+00",0.0,0.0,,33.4,-239,313,40,1023.95,31.6,0
"2019-12-07 10:27:33+00",0.0,0.0,,33.5,-201,235,99,1023.98,31.8,0
"2019-12-07 10:32:33+00",0.0,0.0,,33.6,-192,269,94,1024.21,32.1,0
"2019-12-07 10:37:33+00",0.0,0.0,,33.6,-192,281,91,1024.3,32.2,0
"2019-12-07 10:42:33+00",0.0,0.0,,33.6,-215,312,64,1024.28,32.2,0
"2019-12-07 10:47:33+00",0.0,0.0,,33.6,-199,329,85,1024.36,32.4,0
"2019-12-07 10:52:33+00",0.0,0.0,,33.1,-196,311,63,1024.5,32.2,0
"2019-12-07 10:57:33+00",0.0,0.0,,33,-189,271,90,1024.56,32,0
"2019-12-07 11:02:33+00",0.0,0.0,,33.1,-210,295,76,1024.65,31.9,0
"2019-12-07 11:07:33+00",0.0,0.0,,33.2,-187,263,88,1024.71,31.8,0
"2019-12-07 11:12:33+00",0.0,0.0,,32.9,-161,235,110,1024.78,31.7,0
"2019-12-07 11:17:33+00",0.0,0.0,,32.8,-139,194,110,1024.93,31.6,0
"2019-12-07 11:22:33+00",0.0,0.0,,32.6,-185,300,44,1025,31.5,0
"2019-12-07 11:27:33+00",0.0,0.0,,32.5,-178,241,92,1025.12,31.3,0
"2019-12-07 11:32:33+00",0.0,0.0,,32.4,-185,246,112,1025.23,31.3,0
"2019-12-07 11:37:33+00",0.0,0.0,,32.2,-150,191,150,1025.18,31.1,0
"2019-12-07 11:42:33+00",0.0,0.0,,32,-147,218,133,1025.17,31,0
"2019-12-07 11:47:33+00",0.0,0.0,,31.8,-119,185,150,1025.3,30.8,0
"2019-12-07 11:52:33+00",0.0,0.0,,31.6,-92,130,157,1025.31,30.6,0
"2019-12-07 11:57:33+00",0.0,0.0,,31.5,-138,212,114,1025.37,30.4,0
"2019-12-07 12:02:33+00",0.0,0.0,,31.4,-131,247,85,1025.43,30.2,0
"2019-12-07 12:07:33+00",0.0,0.0,,31.4,-118,234,85,1025.42,30,0
"2019-12-07 12:12:33+00",0.0,0.0,,31.3,-77,166,109,1025.45,29.9,0
"2019-12-07 12:17:33+00",0.0,0.0,,31.5,-151,262,43,1025.45,29.9,0.2
"2019-12-07 12:22:33+00",0.0,0.0,,31.7,-209,418,-14,1025.57,30.1,7.7
"2019-12-07 12:27:33+00",0.0,0.0,,31.8,-220,419,-26,1025.7,30.5,16.5
"2019-12-07 12:32:33+00",0.0,0.0,,31.7,-189,366,-11,1025.74,31,25.1
"2019-12-07 12:37:33+00",0.0,0.0,,31.7,-193,361,-20,1025.83,31.5,34.1
"2019-12-07 12:42:33+00",0.0,0.0,,31.9,-207,422,-18,1025.83,31.9,38.9
"2019-12-07 12:47:33+00",0.0,0.0,,32.1,-244,457,-54,1025.96,32.4,48.8
"2019-12-07 12:52:33+00",0.0,0.0,,32.1,-229,387,-11,1026.01,32.7,60.8
"2019-12-07 12:57:33+00",0.0,0.0,,32.3,-261,493,-59,1026.05,33,62.6
"2019-12-07 13:02:33+00",0.0,0.0,,32.5,-232,434,-51,1026.27,33.4,82.8
"2019-12-07 13:07:33+00",0.0,0.0,,32.8,-315,663,-145,1026.27,33.8,65.2
"2019-12-07 13:12:33+00",0.0,0.0,,33,-258,621,-118,1026.36,34.1,84.6
"2019-12-07 13:17:33+00",0.0,0.0,,33.1,-323,875,-178,1026.31,34.3,86
"2019-12-07 13:22:33+00",0.0,0.0,,33.5,-643,1634,-576,1026.45,34.7,64.6
"2019-12-07 13:27:33+00",0.0,0.0,,33.7,-563,1396,-511,1026.49,34.9,99.2
"2019-12-07 13:32:33+00",0.0,0.0,,34.2,-344,1105,-266,1026.62,35.2,109.1
"2019-12-07 13:37:33+00",0.0,0.0,,34.3,13,527,154,1026.69,35.4,85.5
"2019-12-07 13:42:33+00",0.0,0.0,,34.3,-616,1531,-529,1026.73,35.4,79.6
"2019-12-07 13:47:33+00",0.0,0.0,,34.3,-940,2149,-891,1026.79,35.4,86.3
"2019-12-07 13:52:33+00",0.0,0.0,,34.2,-756,1793,-697,1026.84,35.4,78.3
"2019-12-07 13:57:33+00",0.0,0.0,,34.3,-511,1279,-456,1026.96,35.4,54.3
"2019-12-07 14:02:33+00",0.0,0.0,,34.3,-334,939,-279,1027.01,35.3,73.8
"2019-12-07 14:07:33+00",0.0,0.0,,34.3,-454,1189,-424,1027,35.2,54.1
"2019-12-07 14:12:33+00",0.0,0.0,,34.3,-321,911,-291,1026.95,35.1,75.5
"2019-12-07 14:17:33+00",0.0,0.0,,34.6,-489,1279,-479,1027.02,35.4,115.8
"2019-12-07 14:22:33+00",0.0,0.0,,34.9,-257,872,-268,1027.14,36,187
"2019-12-07 14:27:33+00",0.0,0.0,,35.2,-215,599,-73,1027.06,36.8,175.6
"2019-12-07 14:32:33+00",0.0,0.0,,35.4,-392,1024,-360,1027.05,37.3,167.9
"2019-12-07 14:37:33+00",0.0,0.0,,35.4,-480,1271,-428,1027.13,37.6,189
"2019-12-07 14:42:33+00",0.0,0.0,,35.6,-323,808,-142,1027.25,37.8,182
"2019-12-07 14:47:33+00",0.0,0.0,,35.6,-133,603,-110,1027.25,37.9,197.2
"2019-12-07 14:52:33+00",0.0,0.0,,35.5,-192,662,-85,1027.32,38.1,200.2
"2019-12-07 14:57:33+00",0.0,0.0,,35.8,-223,683,-135,1027.32,38.3,219
"2019-12-07 15:02:33+00",0.0,0.0,,36,-76,355,17,1027.34,38.5,199.5
"2019-12-07 15:07:33+00",0.0,0.0,,36.5,-170,565,-65,1027.28,39.1,236.9
"2019-12-07 15:12:33+00",0.0,0.0,,36.9,-1366,3140,-1372,1027.24,39.3,190.7
"2019-12-07 15:17:33+00",0.0,0.0,,37,-622,1673,-522,1027.26,39.5,166.5
"2019-12-07 15:22:33+00",0.0,0.0,,36.9,-367,1090,-242,1027.25,39.2,165.4
"2019-12-07 15:27:33+00",0.0,0.0,,36.9,-593,1557,-534,1027.39,39.2,156.8
"2019-12-07 15:32:33+00",0.0,0.0,,37,-614,1553,-511,1027.36,39.3,152.6
"2019-12-07 15:37:33+00",0.0,0.0,,36.7,-698,1700,-621,1027.31,39,160.2
"2019-12-07 15:42:33+00",0.0,0.0,,37.1,-603,1489,-495,1027.32,39.5,248
"2019-12-07 15:47:33+00",0.0,0.0,,36.9,-308,871,-83,1027.24,39.5,188.5
"2019-12-07 15:52:33+00",0.0,0.0,,37.1,-1151,2674,-1116,1027.28,39.4,191.6
"2019-12-07 15:57:33+00",0.0,0.0,,37,-1157,2779,-1157,1027.31,39.4,180.5
"2019-12-07 16:02:33+00",0.0,0.0,,37.3,-616,1663,-565,1027.28,39.7,225.4
"2019-12-07 16:07:33+00",0.0,0.0,,36.8,-1566,3464,-1542,1027.19,39.7,204.1
"2019-12-07 16:12:33+00",0.0,0.0,,37,-398,1246,-411,1027.2,39.6,120.3
"2019-12-07 16:17:33+00",0.0,0.0,,37,-966,2297,-927,1027.17,39.4,158.1
"2019-12-07 16:22:33+00",0.0,0.0,,37.3,-161,511,-31,1027.21,39.6,173.9
"2019-12-07 16:27:33+00",0.0,0.0,,37.2,-17,194,224,1027.18,39.4,192
"2019-12-07 16:32:33+00",0.0,0.0,,37.3,26,110,299,1027.16,39.3,212.2
"2019-12-07 16:37:33+00",0.0,0.0,,37.5,-110,111,210,1027.14,39.6,200.6
"2019-12-07 16:42:33+00",0.0,0.0,,37.5,98,-102,357,1027.19,40,252.6
"2019-12-07 16:47:33+00",0.0,0.0,,37.5,-242,646,-65,1027.15,40.1,189.1
"2019-12-07 16:52:33+00",0.0,0.0,,37.5,-824,1941,-778,1027.1,40.1,161.8
"2019-12-07 16:57:33+00",0.0,0.0,,37.8,91,-122,353,1027.09,40.2,221.8
"2019-12-07 17:02:33+00",0.0,0.0,,37.6,-262,723,-69,1027.08,39.9,157.3
"2019-12-07 17:07:33+00",0.0,0.0,,37.8,-317,961,-161,1027.17,39.9,143.5
"2019-12-07 17:12:33+00",0.0,0.0,,37.7,-336,996,-244,1027.15,39.9,113.2
"2019-12-07 17:17:33+00",0.0,0.0,,37.5,-216,679,-118,1027.06,39.7,98.7
"2019-12-07 17:22:33+00",0.0,0.0,,37.8,313,-477,610,1027.05,39.4,87.3
"2019-12-07 17:27:33+00",0.0,0.0,,37.8,-90,41,259,1027.05,39.2,79.7
"2019-12-07 17:32:33+00",0.0,0.0,,37.6,50,-25,329,1027.02,38.8,83.1
"2019-12-07 17:37:33+00",0.0,0.0,,37.4,167,-205,471,1027,38.5,97.5
"2019-12-07 17:42:33+00",0.0,0.0,,37.5,-306,909,-183,1027.01,38.5,139.3
"2019-12-07 17:47:33+00",0.0,0.0,,37.5,-35,366,133,1026.91,38.8,152.3
"2019-12-07 17:52:33+00",0.0,0.0,,37.7,67,-229,419,1026.87,39.1,149.3
"2019-12-07 17:57:33+00",0.0,0.0,,37.8,396,-755,736,1026.83,39.2,105.7
"2019-12-07 18:02:33+00",0.0,0.0,,37.3,-42,98,208,1026.8,38.8,85.4
"2019-12-07 18:07:33+00",0.0,0.0,,37.5,53,-207,383,1026.76,38.8,190.6
"2019-12-07 18:12:33+00",0.0,0.0,,37.9,295,-517,614,1026.76,39.1,204.4
"2019-12-07 18:17:33+00",0.0,0.0,,37.8,97,-86,394,1026.73,39.4,239.4
"2019-12-07 18:22:33+00",0.0,0.0,,37.5,462,-990,846,1026.79,39.5,233
"2019-12-07 18:27:33+00",0.0,0.0,,37.7,-111,178,121,1026.87,39.8,229.6
"2019-12-07 18:32:33+00",0.0,0.0,,38,1082,-1973,1459,1026.95,40.2,222.1
"2019-12-07 18:37:33+00",0.0,0.0,,38.3,164,-449,543,1027.09,40.3,217.1
"2019-12-07 18:42:33+00",0.0,0.0,,38,699,-1289,1043,1027.13,40.2,211.8
"2019-12-07 18:47:33+00",0.0,0.0,,38.3,50,49,317,1027.08,40.3,205.2
"2019-12-07 18:52:33+00",0.0,0.0,,38.3,-4,208,254,1027.1,40.5,201
"2019-12-07 18:57:33+00",0.0,0.0,,38.7,-36,188,169,1027.12,40.7,193.8
"2019-12-07 19:02:33+00",0.0,0.0,,38.7,-70,346,102,1027.08,41.2,188.1
"2019-12-07 19:07:33+00",0.0,0.0,,38.7,565,-961,866,1027.23,41.2,182.7
"2019-12-07 19:12:33+00",0.0,0.0,,38.7,369,-699,670,1027.35,41.1,175.1
"2019-12-07 19:17:33+00",0.0,0.0,,38.7,27,165,247,1027.33,41.1,169.2
"2019-12-07 19:22:33+00",0.0,0.0,,38.7,-75,254,146,1027.28,41,159.2
"2019-12-07 19:27:33+00",0.0,0.0,,38.8,27,-9,259,1027.34,41,151.9
"2019-12-07 19:32:33+00",0.0,0.0,,39,-90,518,-12,1027.43,41.2,148.6
"2019-12-07 19:37:33+00",0.0,0.0,,39,147,-339,422,1027.52,41.3,139.1
"2019-12-07 19:42:33+00",0.0,0.0,,39.2,410,-1049,829,1027.39,41.3,69.8
"2019-12-07 19:47:33+00",0.0,0.0,,38.7,726,-1447,1109,1027.46,40.6,41.3
"2019-12-07 19:52:33+00",0.0,0.0,,38.6,47,-61,331,1027.6,40,78.3
"2019-12-07 19:57:33+00",0.0,0.0,,38.5,-106,347,80,1027.65,39.7,53.8
"2019-12-07 20:02:33+00",0.0,0.0,,38.7,-35,-74,265,1027.69,39.7,42.8
"2019-12-07 20:07:33+00",0.0,0.0,,39,-22,63,175,1027.71,39.9,57.4
"2019-12-07 20:12:33+00",0.0,0.0,,38.9,-76,174,128,1027.68,40.1,71.9
"2019-12-07 20:17:33+00",0.0,0.0,,38.9,-125,100,136,1027.79,40.1,38.1
"2019-12-07 20:22:33+00",0.0,0.0,,39.1,147,-356,438,1027.8,40.2,88.3
"2019-12-07 20:27:33+00",0.0,0.0,,39,-32,135,180,1027.78,40.5,76.9
"2019-12-07 20:32:33+00",0.0,0.0,,39.2,-75,310,58,1027.79,40.6,57.9
"2019-12-07 20:37:33+00",0.0,0.0,,39.2,-67,298,60,1027.8,40.7,44.9
"2019-12-07 20:42:33+00",0.0,0.0,,39.1,-64,222,148,1027.93,40.7,33.8
"2019-12-07 20:47:33+00",0.0,0.0,,39,-32,293,42,1027.94,40.7,23.1
"2019-12-07 20:52:33+00",0.0,0.0,,38.9,-244,775,-203,1027.94,40.5,15.1
"2019-12-07 20:57:33+00",0.0,0.0,,38.7,-16,360,-18,1028.14,40.2,8.4
"2019-12-07 21:02:33+00",0.0,0.0,,38.5,-46,191,52,1028.2,40,2.3
"2019-12-07 21:07:33+00",0.0,0.0,,38.3,-217,764,-141,1028.12,39.6,0
"2019-12-07 21:12:33+00",0.0,0.0,,37.9,-352,1073,-291,1028.12,38.8,0
"2019-12-07 21:17:33+00",0.0,0.0,,37.6,-132,603,-69,1028.3,38.1,0
"2019-12-07 21:22:33+00",0.0,0.0,,37.3,-34,317,83,1028.29,37.6,0
"2019-12-07 21:27:33+00",0.0,0.0,,37.1,-25,327,43,1028.33,37,0
"2019-12-07 21:32:33+00",0.0,0.0,,36.7,-117,514,-85,1028.36,36.5,0
"2019-12-07 21:37:33+00",0.0,0.0,,36.6,-93,400,-12,1028.4,36,0
"2019-12-07 21:42:33+00",0.0,0.0,,36.4,-55,380,17,1028.48,35.4,0
"2019-12-07 21:47:33+00",0.0,0.0,,36.5,-138,497,-27,1028.41,34.9,0
"2019-12-07 21:52:33+00",0.0,0.0,,36.3,-115,437,2,1028.5,34.7,0
"2019-12-07 21:57:33+00",0.0,0.0,,36.5,-126,423,18,1028.55,34.4,0
"2019-12-07 22:02:33+00",0.0,0.0,,36.7,-69,309,42,1028.64,34.3,0
"2019-12-07 22:07:33+00",0.0,0.0,,36.7,-72,301,30,1028.65,34.1,0
"2019-12-07 22:12:33+00",0.0,0.0,,36.7,-84,269,10,1028.65,33.9,0
"2019-12-07 22:17:33+00",0.0,0.0,,36.4,-76,263,19,1028.68,33.5,0
"2019-12-07 22:22:33+00",0.0,0.0,,36.2,-102,286,-3,1028.77,33.3,0
"2019-12-07 22:27:33+00",0.0,0.0,,36,-111,327,-2,1028.81,33,0
"2019-12-07 22:32:33+00",0.0,0.0,,36,-132,316,-2,1028.74,32.8,0
"2019-12-07 22:37:33+00",0.0,0.0,,36.1,-195,473,-84,1028.79,32.7,0
"2019-12-07 22:42:33+00",0.0,0.0,,35.8,-131,353,-14,1028.81,32.6,0
"2019-12-07 22:47:33+00",0.0,0.0,,35.5,-149,369,-29,1028.87,32.4,0
"2019-12-07 22:52:33+00",0.0,0.0,,35.3,-133,277,12,1028.89,32.3,0
"2019-12-07 22:57:33+00",0.0,0.0,,35.4,-159,276,2,1028.88,32.2,0
"2019-12-07 23:02:33+00",0.0,0.0,,35.3,-161,293,-12,1028.92,32.2,0
"2019-12-07 23:07:33+00",0.0,0.0,,34.9,-159,316,-25,1028.96,32.1,0
"2019-12-07 23:12:33+00",0.0,0.0,,34.6,-188,458,-96,1029.05,32,0
"2019-12-07 23:17:33+00",0.0,0.0,,34.8,-156,490,-85,1029.04,31.8,0
"2019-12-07 23:22:33+00",0.0,0.0,,35.1,-140,498,-96,1028.98,31.6,0
"2019-12-07 23:27:33+00",0.0,0.0,,35.2,-214,650,-194,1029.07,31.4,0
"2019-12-07 23:32:33+00",0.0,0.0,,35.5,-196,591,-163,1029.14,31.1,0
"2019-12-07 23:37:33+00",0.0,0.0,,35.5,-101,393,-61,1029.15,30.8,0
"2019-12-07 23:42:33+00",0.0,0.0,,35.5,-110,401,-59,1029.21,30.6,0
"2019-12-07 23:47:33+00",0.0,0.0,,35.6,-104,372,-32,1029.23,30.5,0
"2019-12-07 23:52:33+00",0.0,0.0,,35.6,-103,362,-27,1029.26,30.4,0
"2019-12-07 23:57:33+00",0.0,0.0,,35.5,-132,395,-38,1029.32,30.4,0
